Location: Newark
(3.0500°N, 36.0167°E)
Time: 00:18:23
(UTC+00:00)

Courier 1B Rocket - All Passes

Search period start: 25 August 2019 00:00
Search period end: 04 September 2019 00:00
Orbit: 920 x 1202 km, 28.3° (Epoch: 24 August)

Date Brightness Start Highest point End Pass type
(mag) Time Alt. Az. Time Alt. Az. Time Alt. Az.
25 Aug - 03:24:20 10° N 03:27:17 12° NNE 03:30:15 10° NE daylight
25 Aug - 05:15:42 10° NW 05:22:23 30° NNE 05:28:57 10° E daylight
25 Aug - 07:08:41 10° WNW 07:16:31 88° NNE 07:23:58 10° ESE daylight
25 Aug - 09:04:02 10° W 09:10:18 28° SSW 09:16:16 10° SSE daylight
25 Aug - 16:51:24 10° SSE 16:52:18 10° SSE 16:53:12 10° SSE visible
25 Aug - 18:40:13 10° SW 18:46:06 41° SSE 18:52:13 10° E visible
25 Aug - 20:33:18 10° WSW 20:39:33 52° NNW 20:46:13 10° NE night (unlit)
25 Aug - 22:29:23 10° WNW 22:33:46 18° NNW 22:38:20 10° NNE night (unlit)
26 Aug - 04:15:01 10° NNW 04:20:47 22° NNE 04:26:34 10° ENE daylight
26 Aug - 06:07:26 10° NW 06:15:10 62° NNE 06:22:41 10° ESE daylight
26 Aug - 08:01:49 10° W 08:09:01 42° SSW 08:15:53 10° SE daylight
26 Aug - 10:00:33 10° SW 10:03:09 12° SSW 10:05:43 10° S daylight
26 Aug - 17:39:55 10° SSW 17:45:04 26° SSE 17:50:18 10° E visible
26 Aug - 19:32:09 10° WSW 19:38:28 80° NNW 19:45:08 10° ENE night (unlit)
26 Aug - 21:27:09 10° WNW 21:32:18 24° NNW 21:37:43 10° NNE night (unlit)
27 Aug - 03:14:33 10° NNW 03:19:05 16° NNE 03:23:40 10° NE visible
27 Aug - 05:06:25 10° NW 05:13:45 43° NNE 05:21:02 10° E daylight
27 Aug - 07:00:00 10° WNW 07:07:43 63° SSW 07:15:10 10° SE daylight
27 Aug - 08:56:37 10° WSW 09:01:41 19° SSW 09:06:36 10° SSE daylight
27 Aug - 16:40:00 10° SSW 16:43:55 17° SSE 16:47:50 10° ESE visible
27 Aug - 18:31:15 10° SW 18:37:28 67° SSE 18:43:53 10° ENE visible
27 Aug - 20:25:19 10° W 20:31:01 34° NNW 20:37:00 10° NE night (unlit)
27 Aug - 22:22:59 10° NW 22:25:35 12° NNW 22:28:13 10° N night (unlit)
28 Aug - 02:14:31 10° N 02:17:16 12° NNE 02:20:04 10° NE visible
28 Aug - 04:05:36 10° NW 04:12:17 31° NNE 04:18:59 10° E daylight
28 Aug - 05:58:31 10° WNW 06:06:23 90° SSW 06:14:07 10° ESE daylight
28 Aug - 07:53:50 10° W 08:00:17 28° SSW 08:06:32 10° SSE daylight
28 Aug - 15:41:14 10° S 15:42:38 11° SSE 15:44:03 10° SE daylight
28 Aug - 17:30:37 10° SW 17:36:28 42° SSE 17:42:24 10° E visible
28 Aug - 19:23:49 10° WSW 19:29:52 50° NNW 19:36:11 10° NE visible
28 Aug - 21:20:07 10° WNW 21:23:59 16° NNW 21:28:00 10° NNE night (unlit)
29 Aug - 03:05:01 10° NNW 03:10:43 22° NNE 03:16:30 10° ENE visible
29 Aug - 04:57:19 10° NW 05:05:02 64° NNE 05:12:44 10° ESE daylight
29 Aug - 06:51:38 10° W 06:58:55 42° SSW 07:06:03 10° SE daylight
29 Aug - 08:50:12 10° SW 08:53:13 13° SSW 08:56:12 10° S daylight
29 Aug - 16:30:13 10° SSW 16:35:26 27° SSE 16:40:37 10° E visible
29 Aug - 18:22:36 10° WSW 18:28:50 77° NNW 18:35:14 10° NE visible
29 Aug - 20:17:48 10° WNW 20:22:35 22° NNW 20:27:34 10° NNE night (unlit)
30 Aug - 02:04:43 10° NNW 02:09:04 16° NNE 02:13:30 10° NE visible
30 Aug - 03:56:22 10° NW 04:03:37 44° NNE 04:11:01 10° E daylight
30 Aug - 05:49:52 10° WNW 05:57:35 62° SSW 06:05:14 10° SE daylight
30 Aug - 07:46:25 10° WSW 07:51:41 19° SSW 07:56:50 10° SSE daylight
30 Aug - 15:30:08 10° SSW 15:34:17 18° SSE 15:38:21 10° ESE daylight
30 Aug - 17:21:38 10° SW 17:27:51 69° SSE 17:34:07 10° ENE visible
30 Aug - 19:15:52 10° W 19:21:21 32° NNW 19:27:00 10° NE visible
30 Aug - 21:14:07 10° NNW 21:15:49 11° NNW 21:17:32 10° N night (unlit)
31 Aug - 01:05:00 10° N 01:07:18 12° NNE 01:09:40 10° NE visible
31 Aug - 02:55:40 10° NNW 03:02:10 31° NNE 03:08:53 10° E visible
31 Aug - 04:48:27 10° WNW 04:56:14 88° SSW 05:04:06 10° ESE daylight
31 Aug - 06:43:41 10° W 06:50:13 28° SSW 06:56:39 10° SSE daylight
31 Aug - 14:30:51 10° S 14:32:58 12° SSE 14:35:03 10° SE daylight
31 Aug - 16:20:53 10° SW 16:26:52 44° SSE 16:32:45 10° E visible
31 Aug - 18:14:16 10° WSW 18:20:15 48° NNW 18:26:19 10° NE visible
31 Aug - 20:10:51 10° NW 20:14:17 15° NNW 20:17:48 10° NNE night (unlit)
01 Sep - 01:55:12 10° NNW 02:00:40 22° NNE 02:06:20 10° ENE visible
01 Sep - 03:47:20 10° NW 03:54:53 65° NNE 04:02:39 10° ESE daylight
01 Sep - 05:41:33 10° W 05:48:47 41° SSW 05:56:03 10° SE daylight
01 Sep - 07:39:58 10° SW 07:43:13 13° SSW 07:46:27 10° S daylight
01 Sep - 15:20:21 10° SSW 15:25:48 28° SSE 15:31:05 10° E daylight
01 Sep - 17:12:57 10° WSW 17:19:15 75° NNW 17:25:29 10° NE visible
01 Sep - 19:08:22 10° WNW 19:12:56 21° NNW 19:17:35 10° NNE visible
02 Sep - 00:55:05 10° NNW 00:59:05 15° NNE 01:03:14 10° NE visible
02 Sep - 02:46:29 10° NW 02:53:31 44° NNE 03:00:52 10° E visible
02 Sep - 04:39:52 10° WNW 04:47:25 61° SSW 04:55:09 10° SE daylight
02 Sep - 06:36:19 10° WSW 06:41:36 19° SSW 06:46:53 10° SSE daylight
02 Sep - 14:20:06 10° SSW 14:24:37 19° SSE 14:28:58 10° ESE daylight
02 Sep - 16:11:52 10° SW 16:18:15 71° SSE 16:24:28 10° ENE visible
02 Sep - 18:06:20 10° W 18:11:44 30° NNW 18:17:10 10° NE visible
02 Sep - 23:55:50 10° N 23:57:26 11° NNE 23:59:02 10° NNE visible
03 Sep - 01:45:53 10° NNW 01:52:08 31° NNE 01:58:41 10° E visible
03 Sep - 03:38:32 10° WNW 03:46:05 87° SSW 03:53:57 10° ESE daylight
03 Sep - 05:33:40 10° W 05:40:06 28° SSW 05:46:35 10° SSE daylight
03 Sep - 13:20:22 10° S 13:23:15 13° SSE 13:26:04 10° SE daylight
03 Sep - 15:11:00 10° SW 15:17:15 46° SSE 15:23:13 10° ENE daylight
03 Sep - 17:04:37 10° W 17:10:39 46° NNW 17:16:36 10° NE visible
03 Sep - 19:01:31 10° NW 19:04:38 14° NNW 19:07:46 10° N visible
